Regional Weather Roundup
Issued by NWS State College, PA

Home | Current Version | Previous Version | Graphics & Text | Print | Product List | Glossary On
Versions: 1 2 3 4 5 6 7 8 9 10 11 12 13 14 15 16 17 18 19 20 21 22 23 24 25 26 27 28 29 30 31 32 33 34 35 36 37 38 39 40 41 42 43 44 45 46 47 48 49 50
000
ASUS41 KCTP 211010
RWRCTP

REGIONAL WEATHER ROUNDUP
NATIONAL WEATHER SERVICE STATE COLLEGE PA
600 AM EDT THU AUG 21 2014

Note: "fair" indicates few or no clouds below 12,000 feet with no
significant weather and/or obstructions to visibility.

* = STATION THAT DOES NOT REPORT PRECIPITATION /E.G. RAIN...SNOW...ETC/
    THUNDER OR FOG.

PAZ002>004-007>009-013>016-020>023-029>032-211100-
WESTERN PENNSYLVANIA

CITY           SKY/WX    TMP DP  RH WIND       PRES   REMARKS
ERIE           CLEAR     67  64  90 S5        29.97R
MEADVILLE      MOCLDY    65  63  93 SW5       30.01R FOG
FRANKLIN*      PTCLDY    63  61  94 SW6       30.03R
NEW CASTLE     NOT AVBL
BEAVER COUNTY  NOT AVBL
BUTLER*        MOCLDY    63  61  94 CALM      30.04R
PITTSBURGH INT PTCLDY    66  65  96 CALM      30.02R
PITTSBURGH     CLEAR     64  62  93 SE5       30.02R
INDIANA*       MOCLDY    66  64  94 CALM      30.08R FOG
LATROBE        PTCLDY    66  66 100 CALM      30.04S
WASHINGTON CO* MOCLDY    63  61  94 CALM      30.04R
$$

PAZ004>006-010>012-017>019-024>028-033>037-041-042-045-046-049>053-211100-
CENTRAL PENNSYLVANIA

CITY           SKY/WX    TMP DP  RH WIND       PRES   REMARKS
BRADFORD       MOCLDY    62  60  93 CALM      30.04R
DUBOIS         CLEAR     63  63 100 SW3       30.03R FOG
CLEARFIELD     FOG       63  63 100 CALM      30.04R VSB 1/4
JOHNSTOWN      CLEAR     65  63  93 W8        30.07R
ALTOONA        MOCLDY    65  65 100 CALM      30.05R
STATE COLLEGE  MOCLDY    66  64  94 CALM      30.03R FOG
WILLIAMSPORT   MOCLDY    68  65  90 CALM      29.99R
SELINSGROVE    PTCLDY    65  63  93 CALM      30.01R FOG
FT INDIANTOWN  PTCLDY    63  63 100 CALM      30.03R FOG
CAPITAL CITY   CLEAR     65  64  97 W3        30.02R
HARRISBURG     MOCLDY    68  65  90 E3        30.01R
YORK           CLEAR     61  61 100 CALM      30.01R FOG
$$

PAZ038>040-043-044-047-048-054-055-060>062-067>071-211100-
EASTERN PENNSYLVANIA

CITY           SKY/WX    TMP DP  RH WIND       PRES   REMARKS
SCRANTON       MOCLDY    68  62  81 CALM      30.03R
MOUNT POCONO   CLOUDY    62  61  96 CALM      30.06R FOG
ALLENTOWN      PTCLDY    68  62  81 E3        30.02R
QUAKERTOWN*    SUNNY     63  63 100 CALM      30.04S
READING        CLEAR     66  62  87 CALM      30.01R
LANCASTER      CLEAR     63  61  93 CALM      30.02R FOG
COATESVILLE    MOSUNNY   63  63 100 CALM      30.04R FOG
POTTSTOWN      CLEAR     65  63  93 CALM      30.04R
BLUE BELL      PTCLDY    64  63  94 CALM      30.03R
DOYLESTOWN     CLOUDY    65  64  97 CALM      30.04R
WILLOW GROVE   NOT AVBL
NORTH PHILA    PTCLDY    68  63  84 CALM      30.04R
PHILADELPHIA   PTCLDY    69  64  84 SE5       30.03R
$$



USA.gov is the U.S. government's official web portal to all federal, state and local government web resources and services.